Regional Weather Roundup
Issued by NWS

Home | Current Version | Previous Version | Text Only | Print | Product List | Glossary On
Versions: 1 2 3 4 5 6 7 8 9 10 11 12 13 14 15 16 17 18 19 20 21 22 23 24 25 26 27 28 29 30 31 32 33 34 35 36 37 38 39 40 41 42 43 44 45 46 47 48 49 50
000
ASUS43 KLOT 241812
RWRIL

ILLINOIS REGIONAL WEATHER ROUNDUP
NATIONAL WEATHER SERVICE CHICAGO/ROMEOVILLE IL
1200 PM CST TUE JAN 24 2017

NOTE: "FAIR" INDICATES FEW OR NO CLOUDS BELOW 12,000 FEET WITH NO
SIGNIFICANT WEATHER AND/OR OBSTRUCTIONS TO VISIBILITY.

* THESE STATIONS ARE NOT UNDER NWS QUALITY CONTROL. THEY ALSO MAY NOT
  REPORT WEATHER SUCH AS PRECIPITATION OR FOG.

ILZ001-002-007-009-015-016-024-241900-
NORTHWEST ILLINOIS

CITY           SKY/WX    TMP DP  RH WIND       PRES   REMARKS
MOLINE         CLOUDY    37  30  75 SE8       29.86F WCI  31
6HR MIN TEMP:  34; 6HR MAX TEMP:  37;

STERLING*      CLOUDY    36  32  85 CALM      29.88F
SAVANNA*       CLOUDY    35  32  88 S5        29.88S WCI  31
$$

ILZ003-004-008-010-011-017-018-241900-
NORTH CENTRAL ILLINOIS

CITY           SKY/WX    TMP DP  RH WIND       PRES   REMARKS
ROCKFORD       CLOUDY    37  31  78 CALM      29.89F
6HR MIN TEMP:  35; 6HR MAX TEMP:  37;

FREEPORT*      CLOUDY    34  31  87 CALM      29.88F
ROCHELLE*      CLOUDY    36  31  83 CALM      29.88F
DE KALB*       CLOUDY    35  32  90 CALM      29.87F
PERU*          CLOUDY    37  32  83 CALM      29.88F
$$

ILZ005-006-012>014-019>023-241900-
NORTHEAST ILLINOIS

CITY           SKY/WX    TMP DP  RH WIND       PRES   REMARKS
CHICAGO-OHARE  CLOUDY    35  32  88 SW5       29.87F WCI  31
6HR MIN TEMP:  34; 6HR MAX TEMP:  36;

CHICAGO-MIDWAY CLOUDY    37  31  78 W6        29.88F WCI  32
6HR MIN TEMP:  37; 6HR MAX TEMP:  38;

AURORA         CLOUDY    37  31  78 W6        29.88F WCI  32
6HR MIN TEMP:  36; 6HR MAX TEMP:  37;

LANSING*       CLOUDY    38  34  86 W3        29.88F
JOLIET*        CLOUDY    38  32  78 W3        29.89F
WAUKEGAN       CLOUDY    37  32  82 W5        29.86F WCI  33
6HR MIN TEMP:  35; 6HR MAX TEMP:  37;

DUPAGE AIRPORT CLOUDY    36  30  79 NW5       29.87F WCI  32
6HR MIN TEMP:  35; 6HR MAX TEMP:  36;

KANKAKEE*      CLOUDY    38  32  77 CALM      29.89F
WHEELING       CLOUDY    35  32  88 CALM      29.89F
6HR MIN TEMP:  34; 6HR MAX TEMP:  36;

MORRIS*        CLOUDY    38  31  76 CALM      29.88F
ROMEOVILLE*    CLOUDY    37  34  90 W3        29.88F
NORTHERLY ISL    N/A     36  30  79 SW7         N/A  WCI  30
$$

LMZ740>746-241900-
SOUTHERN LAKE MICHIGAN

STATION/POSITION SKY/WX   TEMP    WIND        PRES    VSBY  WAVE
                          AIR SEA DIR/SP/G                  HT/PER
                          (F)     (DEG/KT/KT) (MB)    (MI)  (FT/S)
HARRISON CRIB              35     340/  5/  6   N/A
BURNHAM HARBOR             36     290/  4/  8   N/A
CALUMET HARBOR             37     290/  2/  4 1011.3F
BURNS HARBOR               35     300/  5/  7 1012.5F
$$

ILZ025>027-034>036-040-047-049-050-058-095>099-241900-
WEST-CENTRAL ILLINOIS

CITY           SKY/WX    TMP DP  RH WIND       PRES   REMARKS
QUINCY         PTSUNNY   38  32  79 SE9       29.82F WCI  31
GALESBURG*     CLOUDY    36  32  86 SE5       29.87F WCI  32
MACOMB*        CLOUDY    37  33  85 SE8       29.88F WCI  31
JACKSONVILLE*  CLOUDY    39  32  75 E9        29.87F WCI  33
PITTSFIELD*    CLOUDY    40  33  75 E14       29.84F
$$

ILZ028>032-037-038-041>044-048-051>054-059>061-241900-
CENTRAL ILLINOIS

CITY           SKY/WX    TMP DP  RH WIND       PRES   REMARKS
PONTIAC        CLOUDY    40  34  80 CALM      29.88F
BLOOMINGTON    CLOUDY    39  33  79 S8        29.88F WCI  33
DECATUR        CLOUDY    39  34  82 SE5       29.89F
PEORIA         CLOUDY    39  33  79 S10       29.89R WCI  32
6HR MIN TEMP:  35; 6HR MAX TEMP:  39;

LACON*         CLOUDY    38  32  81 SE3       29.86F
LINCOLN*       CLOUDY    39  34  81 SE6       29.89S
SPRINGFIELD    CLOUDY    42  33  70 SE7       29.86F
6HR MIN TEMP:  37; 6HR MAX TEMP:  42;

TAYLORVILLE    CLOUDY    40  32  73 SE7       29.88F
6HR MIN TEMP:  36; 6HR MAX TEMP:  40;

$$

ILZ033-039-045-046-055>057-062-063-241900-
EAST-CENTRAL ILLINOIS

CITY           SKY/WX    TMP DP  RH WIND       PRES   REMARKS
CHAMPAIGN      CLOUDY    40  32  73 E6        29.88F
RANTOUL*       CLOUDY    41  34  76 CALM      29.87F
MATTOON        CLOUDY    39  33  79 S5        29.88F
PARIS*         CLOUDY    40  34  80 SE3       29.89F
$$

ILZ079-100>102-241900-
SOUTHWEST ILLINOIS

CITY           SKY/WX    TMP DP  RH WIND       PRES   REMARKS
ALTON          PTSUNNY   41  34  75 SE9       29.90S
BELLEVILLE     PTSUNNY   46  35  67 VRB5      29.89R
CAHOKIA*       MOSUNNY   47  35  63 S9        29.88S
SPARTA*        SUNNY     45  34  64 SE6       29.91R
$$

ILZ064>066-069>071-074>076-080>082-084>086-088>090-092>094-241900-
SOUTH-CENTRAL ILLINOIS

CITY           SKY/WX    TMP DP  RH WIND       PRES   REMARKS
CARBONDALE     SUNNY     48  36  63 S8        29.89F
6HR MIN TEMP:  37; 6HR MAX TEMP:  48;

CAIRO*         SUNNY     46  36  67 SE5       29.91F
EFFINGHAM*     CLOUDY    42  35  76 E5        29.91F
MARION         SUNNY     50  36  57 SE9       29.91F
MT. VERNON     SUNNY     47  35  63 S6        29.89F
CENTRALIA*     SUNNY     47  37  67 SE5       29.87F
SALEM*         MOSUNNY   47  34  62 E7        29.88F
METROPOLIS*    SUNNY     48  36  62 CALM      29.92F
$$

ILZ067-068-072-073-078-083-087-091-241900-
SOUTHEAST ILLINOIS

CITY           SKY/WX    TMP DP  RH WIND       PRES   REMARKS
LAWRENCEVILLE  CLOUDY    42  34  73 S3        29.91F
FLORA*         CLOUDY    47  37  69 S7        29.89F
FAIRFIELD*     MOSUNNY   45  35  67 CALM      29.88F
HARRISBURG*    SUNNY     46  36  69 S3        29.91F
ROBINSON*      CLOUDY    41  34  77 E3        29.91F
CARMI*         CLOUDY    44  36  73 SE5       29.89F
$$

ABBREVIATIONS USED IN REMARKS
   TC - TEMPERATURE IN CELSIUS
  WCI - WIND CHILL INDEX
   HX - HEAT INDEX
  VSB - VISIBILITY
$$




USA.gov is the U.S. government's official web portal to all federal, state and local government web resources and services.